| time (UTC) | temp C | wind direction | speed KPH | gust KPH | rain 1hr cm | rain 24hr cm | rain mn cm | humidity % | barometer mb |
| 20260904164558 | 23 | 221 | 3.2 | 9.7 | 0.00 | 0.00 | 0.00 | 65 | 1014.6 |
| 20260904163100 | 23 | 175 | 4.8 | 12.9 | 0.00 | 0.00 | 0.00 | 64 | 1014.4 |
| 20260904161603 | 23 | 116 | 4.8 | 14.5 | 0.00 | 0.00 | 0.00 | 64 | 1014.5 |
| 20260904160100 | 24 | 114 | 3.2 | 11.3 | 0.00 | 0.00 | 0.00 | 63 | 1014.2 |
| 20260904154556 | 23 | 85 | 3.2 | 12.9 | 0.00 | 0.00 | 0.00 | 66 | 1014.0 |
| 20260904153116 | 22 | 105 | 6.4 | 14.5 | 0.00 | 0.00 | 0.00 | 66 | 1014.0 |
| 20260904151559 | 21 | 105 | 8.0 | 12.9 | 0.00 | 0.00 | 0.00 | 71 | 1013.9 |
| 20260904150057 | 21 | 115 | 8.0 | 14.5 | 0.00 | 0.00 | 0.00 | 70 | 1013.9 |
| 20260904144613 | 20 | 105 | 6.4 | 12.9 | 0.00 | 0.00 | 0.00 | 74 | 1013.8 |
| 20260904143121 | 18 | 90 | 6.4 | 12.9 | 0.00 | 0.00 | 0.00 | 77 | 1013.8 |
| 20260904141559 | 19 | 82 | 3.2 | 8.0 | 0.00 | 0.00 | 0.00 | 76 | 1013.7 |
| 20260904140058 | 18 | 88 | 3.2 | 6.4 | 0.00 | 0.00 | 0.00 | 78 | 1013.5 |
| 20260904134558 | 17 | 99 | 4.8 | 9.7 | 0.00 | 0.00 | 0.00 | 82 | 1013.5 |
| 20260904133111 | 17 | 94 | 4.8 | 11.3 | 0.00 | 0.00 | 0.00 | 83 | 1013.2 |
| 20260904131556 | 17 | 101 | 6.4 | 11.3 | 0.00 | 0.00 | 0.00 | 83 | 1013.3 |
| 20260904130105 | 17 | 101 | 6.4 | 12.9 | 0.00 | 0.00 | 0.00 | 82 | 1013.2 |
| 20260904124559 | 17 | 82 | 4.8 | 9.7 | 0.00 | 0.00 | 0.00 | 83 | 1013.2 |
| 20260904123100 | 17 | 80 | 4.8 | 9.7 | 0.00 | 0.00 | 0.00 | 83 | 1013.1 |
| 20260904121556 | 17 | 97 | 4.8 | 9.7 | 0.00 | 0.00 | 0.00 | 83 | 1013.1 |
| 20260904120105 | 17 | 93 | 6.4 | 11.3 | 0.00 | 0.00 | 0.00 | 82 | 1013.0 |
| 20260904114606 | 17 | 105 | 6.4 | 12.9 | 0.00 | 0.00 | 0.00 | 82 | 1013.2 |
| 20260904113058 | 18 | 107 | 4.8 | 14.5 | 0.00 | 0.00 | 0.00 | 82 | 1013.2 |
| 20260904111557 | 18 | 98 | 6.4 | 14.5 | 0.00 | 0.00 | 0.00 | 82 | 1013.3 |
| 20260904110053 | 18 | 121 | 8.0 | 12.9 | 0.00 | 0.00 | 0.00 | 82 | 1013.3 |
| 20260904104601 | 18 | 109 | 6.4 | 11.3 | 0.00 | 0.00 | 0.00 | 83 | 1013.2 |
| 20260904103057 | 18 | 101 | 4.8 | 11.3 | 0.00 | 0.00 | 0.00 | 84 | 1013.1 |
| 20260904101553 | 17 | 104 | 6.4 | 11.3 | 0.00 | 0.00 | 0.00 | 84 | 1012.9 |
| 20260904100059 | 17 | 94 | 4.8 | 9.7 | 0.00 | 0.00 | 0.00 | 84 | 1013.0 |
| 20260904094559 | 17 | 132 | 3.2 | 4.8 | 0.00 | 0.00 | 0.00 | 84 | 1012.9 |
| 20260904093054 | 17 | 133 | 3.2 | 6.4 | 0.00 | 0.00 | 0.00 | 85 | 1012.9 |
| 20260904091554 | 17 | 159 | 1.6 | 6.4 | 0.00 | 0.00 | 0.00 | 84 | 1013.0 |
| 20260904090100 | 17 | 161 | 1.6 | 6.4 | 0.00 | 0.00 | 0.00 | 84 | 1013.0 |
| 20260904084601 | 17 | 161 | 1.6 | 3.2 | 0.00 | 0.00 | 0.00 | 84 | 1013.0 |
| 20260904083105 | 17 | 161 | 0.0 | 3.2 | 0.00 | 0.00 | 0.00 | 84 | 1013.1 |
| 20260904081600 | 17 | 161 | 1.6 | 6.4 | 0.00 | 0.00 | 0.00 | 84 | 1013.3 |
| 20260904080121 | 17 | 0 | 0.0 | 0.0 | 0.00 | 0.00 | 0.00 | 84 | 1013.4 |
| 20260904074556 | 17 | 161 | 0.0 | 3.2 | 0.00 | 0.00 | 0.00 | 84 | 1013.5 |
| 20260904073112 | 17 | 161 | 1.6 | 6.4 | 0.00 | 0.00 | 0.00 | 84 | 1013.4 |
| 20260904071603 | 17 | 207 | 0.0 | 4.8 | 0.00 | 0.00 | 0.00 | 84 | 1013.5 |
| 20260904064557 | 17 | 207 | 1.6 | 4.8 | 0.00 | 0.00 | 0.00 | 83 | 1013.4 |
| 20260904063116 | 18 | 208 | 0.0 | 3.2 | 0.00 | 0.00 | 0.00 | 83 | 1013.4 |
| 20260904061557 | 18 | 0 | 0.0 | 0.0 | 0.00 | 0.00 | 0.00 | 83 | 1013.3 |
| 20260904060056 | 18 | 0 | 0.0 | 0.0 | 0.00 | 0.00 | 0.00 | 83 | 1013.3 |
| 20260904054604 | 17 | 0 | 0.0 | 0.0 | 0.00 | 0.00 | 0.00 | 82 | 1013.3 |
| 20260904053138 | 18 | 0 | 0.0 | 0.0 | 0.00 | 0.00 | 0.00 | 82 | 1013.4 |
| 20260904051556 | 18 | 0 | 0.0 | 0.0 | 0.00 | 0.00 | 0.00 | 81 | 1013.5 |
| 20260904050104 | 18 | 0 | 0.0 | 1.6 | 0.00 | 0.00 | 0.00 | 81 | 1013.6 |
| 20260904044614 | 18 | 209 | 0.0 | 3.2 | 0.00 | 0.00 | 0.00 | 81 | 1013.6 |
| 20260904043104 | 18 | 209 | 0.0 | 4.8 | 0.00 | 0.00 | 0.00 | 81 | 1013.5 |
| 20260904041603 | 18 | 0 | 1.6 | 4.8 | 0.00 | 0.00 | 0.00 | 80 | 1013.5 |
| 20260904040106 | 18 | 214 | 0.0 | 6.4 | 0.00 | 0.00 | 0.00 | 80 | 1013.4 |
| 20260904034605 | 18 | 216 | 1.6 | 4.8 | 0.00 | 0.00 | 0.00 | 81 | 1013.1 |
| 20260904033105 | 18 | 219 | 3.2 | 8.0 | 0.00 | 0.00 | 0.00 | 80 | 1013.0 |
| 20260904031603 | 18 | 0 | 0.0 | 3.2 | 0.00 | 0.00 | 0.00 | 80 | 1012.8 |
| 20260904030103 | 18 | 0 | 0.0 | 4.8 | 0.00 | 0.00 | 0.00 | 79 | 1012.8 |
| 20260904024601 | 19 | 237 | 1.6 | 6.4 | 0.00 | 0.00 | 0.00 | 78 | 1012.8 |
| 20260904023055 | 19 | 243 | 1.6 | 6.4 | 0.00 | 0.00 | 0.00 | 78 | 1012.9 |
| 20260904021558 | 20 | 250 | 1.6 | 6.4 | 0.00 | 0.00 | 0.00 | 77 | 1012.8 |
| 20260904014606 | 20 | 265 | 3.2 | 8.0 | 0.00 | 0.00 | 0.00 | 75 | 1012.8 |
| 20260904013118 | 21 | 241 | 4.8 | 14.5 | 0.00 | 0.00 | 0.00 | 74 | 1012.9 |
| 20260904011626 | 21 | 240 | 6.4 | 14.5 | 0.00 | 0.00 | 0.00 | 72 | 1012.9 |
| 20260904010057 | 21 | 0 | 6.4 | 19.3 | 0.00 | 0.00 | 0.00 | 72 | 1013.0 |
| 20260904004600 | 22 | 250 | 8.0 | 19.3 | 0.00 | 0.00 | 0.00 | 71 | 1012.9 |
| 20260904003057 | 22 | 261 | 6.4 | 19.3 | 0.00 | 0.00 | 0.00 | 69 | 1013.0 |
| 20260904001554 | 22 | 292 | 9.7 | 19.3 | 0.00 | 0.00 | 0.00 | 70 | 1013.1 |
| 20260904000104 | 22 | 252 | 6.4 | 24.1 | 0.00 | 0.00 | 0.00 | 70 | 1013.1 |
| 20260903234557 | 22 | 253 | 8.0 | 20.9 | 0.00 | 0.00 | 0.00 | 68 | 1013.1 |
| 20260903233056 | 22 | 269 | 9.7 | 22.5 | 0.00 | 0.00 | 0.00 | 70 | 1013.2 |
| 20260903231554 | 23 | 257 | 9.7 | 20.9 | 0.00 | 0.00 | 0.00 | 71 | 1013.4 |
| 20260903230058 | 23 | 246 | 11.3 | 20.9 | 0.00 | 0.00 | 0.00 | 72 | 1013.3 |
| 20260903224601 | 23 | 360 | 9.7 | 20.9 | 0.00 | 0.00 | 0.00 | 71 | 1013.4 |
| 20260903223059 | 23 | 360 | 6.4 | 20.9 | 0.00 | 0.00 | 0.00 | 71 | 1013.5 |
| 20260903221559 | 23 | 238 | 9.7 | 19.3 | 0.00 | 0.00 | 0.00 | 71 | 1013.6 |
| 20260903220104 | 23 | 235 | 11.3 | 22.5 | 0.00 | 0.00 | 0.00 | 71 | 1013.7 |
| 20260903214610 | 23 | 268 | 12.9 | 20.9 | 0.00 | 0.00 | 0.00 | 71 | 1013.8 |
| 20260903213057 | 23 | 203 | 8.0 | 25.7 | 0.00 | 0.00 | 0.00 | 71 | 1013.8 |
| 20260903211604 | 23 | 229 | 11.3 | 25.7 | 0.00 | 0.00 | 0.00 | 70 | 1014.0 |
| 20260903210140 | 24 | 246 | 9.7 | 20.9 | 0.00 | 0.00 | 0.00 | 70 | 1014.0 |
| 20260903204606 | 24 | 360 | 8.0 | 20.9 | 0.00 | 0.00 | 0.00 | 69 | 1014.0 |
| 20260903203057 | 24 | 242 | 9.7 | 20.9 | 0.00 | 0.00 | 0.00 | 68 | 1014.2 |
| 20260903201558 | 24 | 257 | 8.0 | 19.3 | 0.00 | 0.00 | 0.00 | 69 | 1014.2 |
| 20260903200105 | 25 | 245 | 8.0 | 17.7 | 0.00 | 0.00 | 0.00 | 68 | 1014.2 |
| 20260903194559 | 24 | 227 | 6.4 | 20.9 | 0.00 | 0.00 | 0.00 | 69 | 1014.4 |
| 20260903193058 | 23 | 360 | 9.7 | 20.9 | 0.00 | 0.00 | 0.00 | 69 | 1014.4 |
| 20260903191602 | 23 | 266 | 8.0 | 19.3 | 0.00 | 0.00 | 0.00 | 70 | 1014.4 |
| 20260903190104 | 23 | 360 | 11.3 | 20.9 | 0.00 | 0.00 | 0.00 | 69 | 1014.7 |
| 20260903184603 | 23 | 229 | 9.7 | 20.9 | 0.00 | 0.00 | 0.00 | 69 | 1014.9 |
| 20260903183101 | 23 | 223 | 8.0 | 20.9 | 0.00 | 0.00 | 0.00 | 68 | 1015.2 |
| 20260903181554 | 23 | 360 | 11.3 | 19.3 | 0.00 | 0.00 | 0.00 | 69 | 1015.2 |
| 20260903180108 | 24 | 240 | 9.7 | 17.7 | 0.00 | 0.00 | 0.00 | 68 | 1015.2 |
| 20260903174558 | 24 | 226 | 6.4 | 16.1 | 0.00 | 0.00 | 0.00 | 67 | 1015.4 |
| 20260903173056 | 24 | 232 | 6.4 | 12.9 | 0.00 | 0.00 | 0.00 | 68 | 1015.2 |
| 20260903171614 | 26 | 0 | 3.2 | 11.3 | 0.00 | 0.00 | 0.00 | 63 | 1015.1 |
| 20260903170100 | 26 | 130 | 3.2 | 12.9 | 0.00 | 0.00 | 0.00 | 61 | 1015.2 |